Regional Weather Roundup
Issued by NWS Upton, NY

Home | Current Version | Previous Version | Text Only | Print | Product List | Glossary On
Versions: 1 2 3 4 5 6 7 8 9 10 11 12 13 14 15 16 17 18 19 20 21 22 23 24 25 26 27 28 29
000
ASUS41 KOKX 301805
RWROKX

REGIONAL WEATHER ROUNDUP
NATIONAL WEATHER SERVICE NEW YORK NY
200 PM EDT THU OCT 30 2014

NOTE: "FAIR" INDICATES FEW OR NO CLOUDS BELOW 12,000 FEET WITH NO
SIGNIFICANT WEATHER AND/OR OBSTRUCTIONS TO VISIBILITY.

NYZ071-072-176-178-NJZ106-104-301900-
NEW YORK CITY METRO AREA


CITY           SKY/WX    TMP DP  RH WIND       PRES   REMARKS
CENTRAL PARK   MOSUNNY   58  35  42 VRB5      29.99F
LAGUARDIA APRT MOSUNNY   57  36  45 VRB3      29.97F
KENNEDY INTL   MOSUNNY   58  35  42 NW14      29.98F
NEWARK/LIBERTY MOSUNNY   60  38  43 W14       29.98F
BRNX BOT. GARD   N/A     57  36  44 N8        29.98F
TETERBORO      MOSUNNY   58  37  45 VRB6      29.96F
$$

NYZ177-179-078>081-301900-
LONG ISLAND NEW YORK

CITY           SKY/WX    TMP DP  RH WIND       PRES   REMARKS
FARMINGDALE    MOSUNNY   57  39  51 NW6       29.97F
ISLIP          PTSUNNY   57  41  55 NW10      29.95F
SHIRLEY        CLOUDY    57  41  55 NW9       29.96F
WESTHAMPTON    CLOUDY    57  39  51 NW9       29.96F
MONTAUK POINT    N/A     60  40  47 W6        29.95F
$$

NYZ052-065-067-301900-
HUDSON VALLEY

CITY           SKY/WX    TMP DP  RH WIND       PRES   REMARKS
WHITE PLAINS   MOSUNNY   54  36  50 W7G16     29.96F
NEWBURGH       NOT AVBL
MONTGOMERY     MOSUNNY   54  35  48 NW7       29.97F
POUGHKEEPSIE   PTSUNNY   57  35  43 CALM      29.96F
ALBANY         PTSUNNY   52  36  54 W13G20    29.97F
$$

NJZ001-105-106-008-010-013-015-019>022-104-301900-
NEW JERSEY

CITY           SKY/WX    TMP DP  RH WIND       PRES   REMARKS
NEWARK/LIBERTY MOSUNNY   60  38  43 W14       29.98F
TETERBORO      MOSUNNY   58  37  45 VRB6      29.96F
CALDWELL       PTSUNNY   55  35  47 NW8       29.98F
MORRISTOWN     MOSUNNY   59  39  47 N7        29.99F
SOMERVILLE     MOSUNNY   56  35  45 NW8       29.97F
SUSSEX         CLOUDY    53  36  52 NW7       30.00F
ANDOVER          N/A     51  34  52 N7        30.00F
TRENTON        PTSUNNY   58  37  45 N9        29.99F
MILLVILLE      PTSUNNY   59  39  47 NW9       29.99F
ATLANTIC CITY  PTSUNNY   59  40  49 NW8       29.98F
WRIGHTSTOWN    MOSUNNY   56  39  52 NW6       29.97F
TOMS RIVER     MOSUNNY   61  36  39 NW7       29.98S
BELMAR         MOSUNNY   57  36  44 NW10      29.97F
$$

PAZ047>061-062-071-301900-
EASTERN PENNSYLVANIA

CITY           SKY/WX    TMP DP  RH WIND       PRES   REMARKS
PHILADELPHIA   PTSUNNY   59  38  45 NW8G17    30.00F
ALLENTOWN      MOSUNNY   56  35  45 NW12G20   30.00F
SCRANTON       CLOUDY    49  33  54 W8        30.02F
$$

CTZ002-004>006-009-010-012-RIZ004-006-007-MAZ004-011-015-301900-
SOUTHERN NEW ENGLAND
 IN CT

CITY           SKY/WX    TMP DP  RH WIND       PRES   REMARKS
BRADLEY INTL   PTSUNNY   56  34  43 NW12      29.94F
HARTFORD       CLOUDY    56  35  45 NW6       29.95F
DANBURY        MOSUNNY   56  36  47 VRB3      29.97F
WTRBRY/OXFORD  PTSUNNY   54  37  54 N12G17    29.95F
BRIDGEPORT     PTSUNNY   59  39  47 NW8       29.95F
MERIDEN        PTSUNNY   57  34  41 NW9       29.95F
NEW HAVEN      PTSUNNY   59  37  44 NW7       29.95F
CHESTER        MOCLDY    55  37  50 NW3       29.95F
GROTON         PTSUNNY   58  37  45 NW10      29.93F
WILLIMANTIC    PTSUNNY   56  37  49 VRB7      29.94F

 IN RI

CITY           SKY/WX    TMP DP  RH WIND       PRES   REMARKS
PROVIDENCE     MOSUNNY   60  35  39 VRB6G16   29.92F
BLOCK ISLAND   SUNNY     59  39  47 W9        29.94S
WESTERLY       MOSUNNY   59  36  42 W7        29.93F

 IN MA

CITY           SKY/WX    TMP DP  RH WIND       PRES   REMARKS
BOSTON         MOSUNNY   57  37  47 NW9       29.91S
WORCESTER      CLOUDY    50  35  56 W10       29.92F
WESTFIELD      CLOUDY    54  35  48 NW12      29.95S
PROVINCETOWN   SUNNY     59   3  10 N8        29.92S
NANTUCKET      MOSUNNY   59  40  49 W9        29.91F
$$

ANZ330-335-338-340-345-350-353-355-301900-
COASTAL MARINE OBSERVATIONS


STATION/POSITION TIME  SKY/WX   TEMP    WIND        PRES    VSBY  WAVE
                                AIR SEA DIR/SP/G                  HT/PER
                 (UTC)          (F)     (DEG/KT/KT) (MB)    (MI)  (FT/S)
NY HARB ENTRANCE 1800            56 61  300/ 12/ 14 1014.9          2/ 7
4S FIRE IS       1800               62                N/A           2/ 6
20S FIRE ISLAND  1800            56 63  320/  8/ 12 1014.3          2/ 8
23SW MTP         1800                                 N/A           2/ 7
HUDSON CANYON    1800            59 65  280/ 12/ 14 1013.9          2/ 8
EXECUTION ROCKS  1800            59 60  310/ 10/ 14   N/A
WESTERN LI SOUND 1700            57     160/  2/  4   N/A           0
CENTRAL LI SOUND 1700            55 62  300/  8/ 10   N/A           1
EASTERN LI SOUND 1700            58 62  250/  8/ 10   N/A
ROBBINS REEF     1800            55     320/ 10/ 12 1013.8
$$


>>>>>>>>>>>>>>>>>>>>>>>>>>>> KEY <<<<<<<<<<<<<<<<<<<<<<<<<<<
>                                                          <
>     SKY/WX - SKY CONDITION/PRESENT WEATHER               <
>     TMP    - TEMPERATURE IN FAHRENHEIT                   <
>     DP     - DEWPOINT IN FAHRENHEIT                      <
>     RH     - RELATIVE HUMIDITY IN PERCENT                <
>     WIND   - DIRECTION AND SPEED IN MPH                  <
>     PRES   - MEAN SEA LEVEL PRESSURE IN INCHES OF HG     <
>     WCI    - WIND CHILL INDEX                            <
>     VSB    - VISIBILITY IN MILES                         <
>     HX     - HEAT INDEX                                  <
>     TC     - TEMPERATURE IN CELSIUS                      <
>     VRB    - VARIABLE WIND DIRECTION                     <
>                                                          <
>>>>>>>>>>>>>>>>>>>>>>>>>>>> KEY <<<<<<<<<<<<<<<<<<<<<<<<<<<





USA.gov is the U.S. government's official web portal to all federal, state and local government web resources and services.